Location: Mahannah Oil Field
(37.4664°N, 96.6003°W)
Time: 05:53:10
(UTC+00:00)

Courier 1B Rocket - Pass Details

Date: 28 January 2021
Orbit: 920 x 1202 km, 28.3° (Epoch: 05 March)

Event Time Altitude Azimuth Distance (km) Brightness Sun altitude
Exits shadow 10:45:03 22° 167° (SSE) 1,943 6.6 -33.3°
Maximum altitude 10:45:35 22° 160° (SSE) 1,937 6.7 -33.2°
Drops below altitude 10° 10:50:30 10° 111° (ESE) 2,742 8.1 -32.3°
Sets 10:53:50 0° 97° (E) 3,743 9.2 -31.6°
